| time (UTC) | temp F | wind direction | speed MPH | gust MPH | rain 1hr in | rain 24hr in | rain mn in | humidity % | barometer mb |
| 20260506062422 | 55 | 137 | 0.0 | 0.0 | 0.00 | 0.00 | 0.00 | 99 | 1006.0 |
| 20260506061922 | 56 | 172 | 0.0 | 0.0 | 0.00 | 0.00 | 0.00 | 99 | 1006.0 |
| 20260506061422 | 56 | 257 | 0.0 | 0.0 | 0.00 | 0.00 | 0.00 | 99 | 1006.0 |
| 20260506060922 | 56 | 270 | 0.0 | 0.0 | 0.00 | 0.00 | 0.00 | 99 | 1006.0 |
| 20260506060422 | 56 | 270 | 0.0 | 0.0 | 0.00 | 0.00 | 0.00 | 99 | 1006.0 |
| 20260506050922 | 57 | 112 | 0.0 | 0.0 | 0.00 | 0.00 | 0.00 | 99 | 1006.0 |
| 20260506050422 | 57 | 178 | 0.0 | 0.0 | 0.00 | 0.00 | 0.00 | 99 | 1006.0 |
| 20260506044922 | 57 | 140 | 0.0 | 0.0 | 0.00 | 0.00 | 0.00 | 99 | 1006.0 |
| 20260506044422 | 57 | 138 | 0.0 | 0.0 | 0.00 | 0.00 | 0.00 | 99 | 1006.0 |
| 20260506043922 | 57 | 213 | 0.0 | 0.0 | 0.00 | 0.00 | 0.00 | 99 | 1006.0 |
| 20260506043422 | 58 | 137 | 0.0 | 0.0 | 0.00 | 0.00 | 0.00 | 99 | 1006.0 |
| 20260506042922 | 58 | 221 | 0.0 | 0.0 | 0.00 | 0.00 | 0.00 | 99 | 1006.0 |
| 20260506042422 | 58 | 264 | 0.0 | 0.0 | 0.00 | 0.00 | 0.00 | 99 | 1006.0 |
| 20260506041922 | 58 | 269 | 0.0 | 0.0 | 0.00 | 0.00 | 0.00 | 99 | 1006.0 |
| 20260506041422 | 58 | 135 | 0.0 | 0.0 | 0.00 | 0.00 | 0.00 | 99 | 1006.0 |
| 20260506040922 | 58 | 112 | 0.0 | 0.0 | 0.00 | 0.00 | 0.00 | 99 | 1006.0 |
| 20260506040422 | 58 | 166 | 0.0 | 0.0 | 0.00 | 0.00 | 0.00 | 99 | 1006.0 |
| 20260506035922 | 58 | 147 | 0.0 | 0.0 | 0.00 | 0.00 | 0.00 | 99 | 1006.0 |
| 20260506035422 | 58 | 270 | 0.0 | 0.0 | 0.00 | 0.00 | 0.00 | 99 | 1006.0 |
| 20260506034922 | 59 | 140 | 0.0 | 0.0 | 0.00 | 0.00 | 0.00 | 99 | 1006.0 |
| 20260506034422 | 59 | 123 | 0.0 | 0.0 | 0.00 | 0.00 | 0.00 | 99 | 1006.0 |
| 20260506033922 | 59 | 204 | 0.0 | 0.0 | 0.00 | 0.00 | 0.00 | 99 | 1006.0 |
| 20260506033422 | 59 | 158 | 0.0 | 0.0 | 0.00 | 0.00 | 0.00 | 99 | 1005.2 |
| 20260506032922 | 59 | 70 | 0.0 | 0.0 | 0.00 | 0.00 | 0.00 | 99 | 1006.0 |
| 20260506032422 | 59 | 70 | 0.0 | 0.0 | 0.00 | 0.00 | 0.00 | 99 | 1005.2 |
| 20260506031922 | 60 | 126 | 0.0 | 0.0 | 0.00 | 0.00 | 0.00 | 99 | 1005.2 |
| 20260506031422 | 60 | 133 | 0.0 | 0.0 | 0.00 | 0.00 | 0.00 | 99 | 1005.2 |
| 20260506030922 | 60 | 295 | 0.0 | 0.0 | 0.00 | 0.00 | 0.00 | 99 | 1006.0 |
| 20260506030422 | 60 | 180 | 0.0 | 0.0 | 0.00 | 0.00 | 0.00 | 99 | 1006.0 |
| 20260506025922 | 60 | 282 | 0.0 | 0.0 | 0.00 | 0.00 | 0.00 | 99 | 1006.0 |
| 20260506025422 | 60 | 225 | 0.0 | 0.0 | 0.00 | 0.00 | 0.00 | 99 | 1006.0 |
| 20260506024922 | 60 | 281 | 0.0 | 0.0 | 0.00 | 0.00 | 0.00 | 99 | 1005.2 |
| 20260506024422 | 60 | 60 | 0.0 | 0.0 | 0.00 | 0.00 | 0.00 | 99 | 1006.0 |
| 20260506023922 | 60 | 150 | 0.0 | 0.0 | 0.00 | 0.00 | 0.00 | 99 | 1006.0 |
| 20260506023422 | 60 | 152 | 0.0 | 0.0 | 0.00 | 0.00 | 0.00 | 99 | 1006.0 |
| 20260506022922 | 60 | 79 | 0.0 | 0.0 | 0.00 | 0.00 | 0.00 | 99 | 1006.0 |
| 20260506022422 | 60 | 120 | 0.0 | 0.0 | 0.00 | 0.00 | 0.00 | 99 | 1006.0 |
| 20260506021922 | 60 | 127 | 0.0 | 0.0 | 0.00 | 0.00 | 0.00 | 99 | 1005.1 |
| 20260506021422 | 60 | 275 | 0.0 | 0.0 | 0.00 | 0.00 | 0.00 | 99 | 1005.2 |
| 20260506020922 | 60 | 174 | 0.0 | 0.0 | 0.00 | 0.00 | 0.00 | 99 | 1005.1 |
| 20260506020422 | 61 | 142 | 0.0 | 0.0 | 0.00 | 0.00 | 0.00 | 99 | 1005.1 |
| 20260506015921 | 61 | 117 | 0.0 | 0.0 | 0.00 | 0.00 | 0.00 | 99 | 1005.0 |
| 20260506015422 | 62 | 168 | 0.0 | 0.0 | 0.00 | 0.00 | 0.00 | 99 | 1005.1 |
| 20260506014921 | 62 | 170 | 0.0 | 0.0 | 0.00 | 0.00 | 0.00 | 99 | 1005.2 |
| 20260506014421 | 63 | 30 | 0.0 | 0.0 | 0.00 | 0.00 | 0.00 | 99 | 1005.2 |
| 20260506013921 | 63 | 186 | 0.0 | 0.0 | 0.00 | 0.00 | 0.00 | 99 | 1006.0 |
| 20260506013422 | 63 | 187 | 0.0 | 0.0 | 0.00 | 0.00 | 0.00 | 99 | 1005.2 |
| 20260506012921 | 63 | 131 | 0.0 | 0.0 | 0.00 | 0.00 | 0.00 | 99 | 1005.1 |
| 20260506012421 | 63 | 172 | 0.0 | 0.0 | 0.00 | 0.00 | 0.00 | 99 | 1005.1 |
| 20260506011922 | 64 | 191 | 0.0 | 0.0 | 0.00 | 0.00 | 0.00 | 99 | 1005.0 |
| 20260506011421 | 64 | 21 | 0.0 | 0.0 | 0.00 | 0.00 | 0.00 | 99 | 1005.0 |
| 20260506010921 | 64 | 319 | 0.0 | 0.0 | 0.00 | 0.00 | 0.00 | 99 | 1005.0 |
| 20260506010421 | 64 | 154 | 0.0 | 0.0 | 0.00 | 0.00 | 0.00 | 99 | 1005.0 |
| 20260506005921 | 64 | 260 | 0.0 | 0.0 | 0.00 | 0.00 | 0.00 | 99 | 1005.0 |
| 20260506005421 | 64 | 228 | 0.0 | 0.0 | 0.00 | 0.00 | 0.00 | 99 | 1005.0 |
| 20260506004921 | 64 | 50 | 0.0 | 0.0 | 0.00 | 0.00 | 0.00 | 99 | 1005.0 |
| 20260506004421 | 65 | 101 | 0.0 | 0.0 | 0.00 | 0.00 | 0.00 | 99 | 1005.0 |
| 20260506003921 | 65 | 136 | 0.0 | 0.0 | 0.00 | 0.00 | 0.00 | 99 | 1005.0 |
| 20260506003422 | 65 | 130 | 0.0 | 0.0 | 0.00 | 0.00 | 0.00 | 99 | 1005.0 |
| 20260506002921 | 65 | 157 | 0.0 | 0.0 | 0.00 | 0.00 | 0.00 | 99 | 1005.0 |
| 20260506002421 | 65 | 84 | 0.0 | 0.0 | 0.00 | 0.00 | 0.00 | 99 | 1005.0 |
| 20260506001921 | 66 | 87 | 0.0 | 0.0 | 0.00 | 0.00 | 0.00 | 99 | 1005.0 |
| 20260506001421 | 66 | 76 | 0.0 | 0.0 | 0.00 | 0.00 | 0.00 | 99 | 1005.0 |
| 20260506000921 | 66 | 95 | 0.0 | 0.0 | 0.00 | 0.00 | 0.00 | 99 | 1005.0 |
| 20260506000423 | 67 | 153 | 0.0 | 0.0 | 0.00 | 0.00 | 0.00 | 99 | 1005.0 |
| 20260505235921 | 67 | 190 | 0.0 | 0.0 | 0.00 | 0.00 | 0.00 | 99 | 1005.0 |
| 20260505235421 | 68 | 165 | 0.0 | 0.0 | 0.00 | 0.00 | 0.00 | 99 | 1005.0 |
| 20260505234921 | 68 | 161 | 0.0 | 0.0 | 0.00 | 0.00 | 0.00 | 99 | 1005.0 |
| 20260505234421 | 68 | 172 | 0.0 | 0.0 | 0.00 | 0.00 | 0.00 | 99 | 1005.0 |
| 20260505233921 | 68 | 92 | 0.0 | 0.0 | 0.00 | 0.00 | 0.00 | 99 | 1005.0 |
| 20260505233422 | 68 | 102 | 0.0 | 0.0 | 0.00 | 0.00 | 0.00 | 99 | 1005.0 |
| 20260505232922 | 68 | 177 | 0.0 | 0.0 | 0.00 | 0.00 | 0.00 | 99 | 1005.0 |
| 20260505232421 | 68 | 78 | 0.0 | 0.0 | 0.00 | 0.00 | 0.00 | 99 | 1005.0 |
| 20260505231921 | 68 | 327 | 0.0 | 0.0 | 0.00 | 0.00 | 0.00 | 99 | 1005.0 |
| 20260505231421 | 68 | 259 | 0.0 | 0.0 | 0.00 | 0.00 | 0.00 | 99 | 1005.0 |
| 20260505230921 | 69 | 136 | 0.0 | 0.0 | 0.00 | 0.00 | 0.00 | 99 | 1005.0 |
| 20260505230421 | 69 | 135 | 0.0 | 0.0 | 0.00 | 0.00 | 0.00 | 99 | 1005.0 |
| 20260505225921 | 69 | 161 | 0.0 | 0.0 | 0.00 | 0.00 | 0.00 | 99 | 1004.2 |
| 20260505225421 | 68 | 134 | 0.0 | 0.0 | 0.00 | 0.00 | 0.00 | 99 | 1004.2 |
| 20260505224921 | 68 | 83 | 0.0 | 0.0 | 0.00 | 0.00 | 0.00 | 99 | 1004.2 |
| 20260505224421 | 68 | 77 | 0.0 | 0.0 | 0.00 | 0.00 | 0.00 | 99 | 1004.1 |
| 20260505223921 | 68 | 96 | 0.0 | 0.0 | 0.00 | 0.00 | 0.00 | 99 | 1004.1 |
| 20260505223421 | 68 | 90 | 0.0 | 0.0 | 0.00 | 0.00 | 0.00 | 99 | 1004.1 |
| 20260505222921 | 68 | 182 | 0.0 | 0.0 | 0.00 | 0.00 | 0.00 | 99 | 1004.1 |
| 20260505222421 | 69 | 90 | 0.0 | 0.0 | 0.00 | 0.00 | 0.00 | 99 | 1005.0 |
| 20260505221921 | 70 | 49 | 0.0 | 1.0 | 0.00 | 0.00 | 0.00 | 99 | 1005.0 |
| 20260505221421 | 71 | 75 | 0.0 | 7.0 | 0.00 | 0.00 | 0.00 | 99 | 1005.0 |
| 20260505220921 | 74 | 73 | 1.0 | 8.0 | 0.00 | 0.00 | 0.00 | 99 | 1004.2 |
| 20260505220421 | 76 | 44 | 0.0 | 9.0 | 0.00 | 0.00 | 0.00 | 99 | 1004.1 |
| 20260505215921 | 78 | 22 | 1.0 | 9.0 | 0.00 | 0.00 | 0.00 | 99 | 1004.0 |
| 20260505215421 | 79 | 3 | 0.0 | 5.0 | 0.00 | 0.00 | 0.00 | 99 | 1004.0 |
| 20260505214921 | 79 | 303 | 0.0 | 2.0 | 0.00 | 0.00 | 0.00 | 99 | 1004.0 |
| 20260505214421 | 80 | 5 | 0.0 | 2.0 | 0.00 | 0.00 | 0.00 | 99 | 1004.0 |
| 20260505213921 | 80 | 280 | 0.0 | 1.0 | 0.00 | 0.00 | 0.00 | 99 | 1003.2 |
| 20260505213421 | 81 | 265 | 0.0 | 6.0 | 0.00 | 0.00 | 0.00 | 99 | 1003.1 |
| 20260505212921 | 81 | 262 | 0.0 | 6.0 | 0.00 | 0.00 | 0.00 | 99 | 1003.1 |
| 20260505212421 | 82 | 319 | 0.0 | 3.0 | 0.00 | 0.00 | 0.00 | 99 | 1003.0 |
| 20260505211921 | 82 | 267 | 0.0 | 0.0 | 0.00 | 0.00 | 0.00 | 99 | 1003.0 |
| 20260505211421 | 83 | 313 | 0.0 | 0.0 | 0.00 | 0.00 | 0.00 | 99 | 1003.0 |
| 20260505210921 | 83 | 267 | 0.0 | 0.0 | 0.00 | 0.00 | 0.00 | 99 | 1003.0 |
| 20260505210423 | 83 | 235 | 0.0 | 4.0 | 0.00 | 0.00 | 0.00 | 99 | 1003.0 |
| 20260505205921 | 83 | 277 | 0.0 | 4.0 | 0.00 | 0.00 | 0.00 | 99 | 1003.0 |
| 20260505205421 | 84 | 274 | 0.0 | 4.0 | 0.00 | 0.00 | 0.00 | 99 | 1003.0 |
| 20260505204921 | 85 | 263 | 0.0 | 3.0 | 0.00 | 0.00 | 0.00 | 99 | 1003.0 |
| 20260505204421 | 84 | 272 | 0.0 | 4.0 | 0.00 | 0.00 | 0.00 | 99 | 1003.0 |
| 20260505203921 | 84 | 283 | 0.0 | 8.0 | 0.00 | 0.00 | 0.00 | 99 | 1003.0 |
| 20260505203421 | 84 | 285 | 0.0 | 8.0 | 0.00 | 0.00 | 0.00 | 99 | 1003.0 |
| 20260505202921 | 84 | 283 | 0.0 | 1.0 | 0.00 | 0.00 | 0.00 | 99 | 1003.0 |
| 20260505202421 | 86 | 295 | 0.0 | 5.0 | 0.00 | 0.00 | 0.00 | 99 | 1003.0 |
| 20260505201921 | 87 | 232 | 0.0 | 5.0 | 0.00 | 0.00 | 0.00 | 99 | 1003.0 |
| 20260505201421 | 88 | 312 | 1.0 | 5.0 | 0.00 | 0.00 | 0.00 | 99 | 1003.0 |
| 20260505200921 | 89 | 285 | 0.0 | 4.0 | 0.00 | 0.00 | 0.00 | 99 | 1003.0 |
| 20260505200421 | 91 | 9 | 0.0 | 5.0 | 0.00 | 0.00 | 0.00 | 99 | 1003.0 |
| 20260505195921 | 92 | 320 | 1.0 | 5.0 | 0.00 | 0.00 | 0.00 | 99 | 1003.0 |
| 20260505195421 | 92 | 305 | 0.0 | 0.0 | 0.00 | 0.00 | 0.00 | 99 | 1003.0 |
| 20260505194921 | 92 | 239 | 0.0 | 3.0 | 0.00 | 0.00 | 0.00 | 99 | 1003.0 |
| 20260505194421 | 92 | 324 | 0.0 | 3.0 | 0.00 | 0.00 | 0.00 | 99 | 1003.0 |
| 20260505193921 | 92 | 256 | 0.0 | 5.0 | 0.00 | 0.00 | 0.00 | 99 | 1003.0 |
| 20260505193421 | 90 | 359 | 0.0 | 5.0 | 0.00 | 0.00 | 0.00 | 99 | 1003.0 |
| 20260505192921 | 91 | 270 | 0.0 | 9.0 | 0.00 | 0.00 | 0.00 | 99 | 1003.0 |
| 20260505192421 | 92 | 5 | 2.0 | 9.0 | 0.00 | 0.00 | 0.00 | 99 | 1003.0 |
| 20260505191921 | 92 | 271 | 0.0 | 10.0 | 0.00 | 0.00 | 0.00 | 99 | 1003.0 |
| 20260505191421 | 91 | 265 | 1.0 | 14.0 | 0.00 | 0.00 | 0.00 | 99 | 1003.0 |
| 20260505190921 | 92 | 12 | 3.0 | 14.0 | 0.00 | 0.00 | 0.00 | 99 | 1003.0 |
| 20260505190421 | 92 | 323 | 0.0 | 5.0 | 0.00 | 0.00 | 0.00 | 99 | 1003.1 |
| 20260505185921 | 91 | 320 | 0.0 | 4.0 | 0.00 | 0.00 | 0.00 | 99 | 1003.2 |
| 20260505185421 | 90 | 273 | 0.0 | 8.0 | 0.00 | 0.00 | 0.00 | 99 | 1003.1 |
| 20260505184921 | 90 | 291 | 0.0 | 8.0 | 0.00 | 0.00 | 0.00 | 99 | 1003.1 |
| 20260505184421 | 90 | 268 | 0.0 | 6.0 | 0.00 | 0.00 | 0.00 | 99 | 1003.2 |
| 20260505183921 | 93 | 272 | 1.0 | 6.0 | 0.00 | 0.00 | 0.00 | 99 | 1003.2 |
| 20260505183421 | 95 | 267 | 0.0 | 5.0 | 0.00 | 0.00 | 0.00 | 99 | 1003.1 |
| 20260505182921 | 94 | 315 | 0.0 | 5.0 | 0.00 | 0.00 | 0.00 | 99 | 1003.2 |
| 20260505182421 | 93 | 278 | 1.0 | 5.0 | 0.00 | 0.00 | 0.00 | 99 | 1004.0 |
| 20260505181921 | 92 | 234 | 0.0 | 5.0 | 0.00 | 0.00 | 0.00 | 99 | 1004.0 |
| 20260505180921 | 93 | 278 | 0.0 | 10.0 | 0.00 | 0.00 | 0.00 | 99 | 1004.0 |
| 20260505180421 | 93 | 274 | 0.0 | 5.0 | 0.00 | 0.00 | 0.00 | 99 | 1004.0 |
| 20260505175921 | 92 | 264 | 0.0 | 4.0 | 0.00 | 0.00 | 0.00 | 99 | 1004.0 |
| 20260505175421 | 92 | 353 | 0.0 | 10.0 | 0.00 | 0.00 | 0.00 | 99 | 1004.0 |
| 20260505174921 | 92 | 358 | 1.0 | 10.0 | 0.00 | 0.00 | 0.00 | 99 | 1004.0 |
| 20260505174421 | 94 | 356 | 0.0 | 5.0 | 0.00 | 0.00 | 0.00 | 99 | 1004.0 |
| 20260505173921 | 93 | 312 | 0.0 | 6.0 | 0.00 | 0.00 | 0.00 | 99 | 1004.0 |
| 20260505173421 | 92 | 319 | 1.0 | 6.0 | 0.00 | 0.00 | 0.00 | 99 | 1004.0 |
| 20260505172921 | 92 | 320 | 0.0 | 7.0 | 0.00 | 0.00 | 0.00 | 99 | 1004.0 |
| 20260505172421 | 92 | 283 | 1.0 | 7.0 | 0.00 | 0.00 | 0.00 | 99 | 1004.0 |
| 20260505171921 | 92 | 0 | 1.0 | 4.0 | 0.00 | 0.00 | 0.00 | 99 | 1004.0 |
| 20260505171421 | 92 | 282 | 0.0 | 5.0 | 0.00 | 0.00 | 0.00 | 99 | 1004.0 |
| 20260505170921 | 92 | 310 | 0.0 | 6.0 | 0.00 | 0.00 | 0.00 | 99 | 1004.0 |
| 20260505170421 | 92 | 285 | 0.0 | 6.0 | 0.00 | 0.00 | 0.00 | 99 | 1004.0 |
| 20260505165921 | 91 | 312 | 0.0 | 6.0 | 0.00 | 0.00 | 0.00 | 99 | 1004.0 |
| 20260505165421 | 91 | 317 | 0.0 | 6.0 | 0.00 | 0.00 | 0.00 | 99 | 1004.0 |
| 20260505164921 | 90 | 276 | 0.0 | 2.0 | 0.00 | 0.00 | 0.00 | 99 | 1004.0 |
| 20260505164421 | 90 | 270 | 0.0 | 6.0 | 0.00 | 0.00 | 0.00 | 99 | 1004.0 |
| 20260505163921 | 89 | 310 | 0.0 | 6.0 | 0.00 | 0.00 | 0.00 | 99 | 1004.0 |
| 20260505163421 | 90 | 270 | 0.0 | 6.0 | 0.00 | 0.00 | 0.00 | 99 | 1004.0 |
| 20260505162921 | 89 | 267 | 0.0 | 5.0 | 0.00 | 0.00 | 0.00 | 99 | 1004.0 |
| 20260505162421 | 90 | 226 | 0.0 | 5.0 | 0.00 | 0.00 | 0.00 | 99 | 1004.0 |
| 20260505161921 | 90 | 297 | 0.0 | 5.0 | 0.00 | 0.00 | 0.00 | 99 | 1004.0 |
| 20260505161421 | 90 | 311 | 0.0 | 5.0 | 0.00 | 0.00 | 0.00 | 99 | 1004.0 |
| 20260505160921 | 91 | 321 | 0.0 | 4.0 | 0.00 | 0.00 | 0.00 | 99 | 1004.0 |
| 20260505160421 | 90 | 1 | 0.0 | 4.0 | 0.00 | 0.00 | 0.00 | 99 | 1004.1 |
| 20260505152921 | 85 | 173 | 0.0 | 0.0 | 0.00 | 0.00 | 0.00 | 99 | 1005.0 |
| 20260505152421 | 83 | 235 | 0.0 | 2.0 | 0.00 | 0.00 | 0.00 | 99 | 1004.2 |
| 20260505151921 | 83 | 225 | 0.0 | 2.0 | 0.00 | 0.00 | 0.00 | 99 | 1005.0 |
| 20260505151421 | 83 | 230 | 0.0 | 0.0 | 0.00 | 0.00 | 0.00 | 99 | 1005.0 |
| 20260505150921 | 82 | 228 | 0.0 | 0.0 | 0.00 | 0.00 | 0.00 | 99 | 1005.0 |
| 20260505150421 | 82 | 227 | 0.0 | 0.0 | 0.00 | 0.00 | 0.00 | 99 | 1005.0 |
| 20260505140421 | 83 | 209 | 0.0 | 0.0 | 0.00 | 0.00 | 0.00 | 99 | 1005.1 |
| 20260505124921 | 74 | 255 | 0.0 | 0.0 | 0.00 | 0.00 | 0.00 | 99 | 1006.0 |
| 20260505124421 | 74 | 257 | 0.0 | 0.0 | 0.00 | 0.00 | 0.00 | 99 | 1005.2 |
| 20260505123921 | 74 | 226 | 0.0 | 0.0 | 0.00 | 0.00 | 0.00 | 99 | 1005.2 |
| 20260505123421 | 73 | 244 | 0.0 | 0.0 | 0.00 | 0.00 | 0.00 | 99 | 1005.2 |
| 20260505122920 | 72 | 274 | 0.0 | 0.0 | 0.00 | 0.00 | 0.00 | 99 | 1005.2 |
| 20260505122420 | 71 | 221 | 0.0 | 0.0 | 0.00 | 0.00 | 0.00 | 99 | 1005.2 |
| 20260505121920 | 69 | 242 | 0.0 | 0.0 | 0.00 | 0.00 | 0.00 | 99 | 1005.2 |
| 20260505121420 | 68 | 241 | 0.0 | 0.0 | 0.00 | 0.00 | 0.00 | 99 | 1005.2 |
| 20260505120921 | 67 | 229 | 0.0 | 3.0 | 0.00 | 0.00 | 0.00 | 99 | 1005.2 |
| 20260505120420 | 67 | 197 | 0.0 | 3.0 | 0.00 | 0.00 | 0.00 | 99 | 1005.2 |
| 20260505115920 | 67 | 199 | 0.0 | 0.0 | 0.00 | 0.00 | 0.00 | 99 | 1005.2 |
| 20260505115420 | 66 | 182 | 0.0 | 0.0 | 0.00 | 0.00 | 0.00 | 99 | 1005.2 |
| 20260505114920 | 65 | 214 | 0.0 | 0.0 | 0.00 | 0.00 | 0.00 | 99 | 1005.2 |
| 20260505114421 | 64 | 9 | 0.0 | 0.0 | 0.00 | 0.00 | 0.00 | 99 | 1006.0 |
| 20260505113920 | 64 | 147 | 0.0 | 0.0 | 0.00 | 0.00 | 0.00 | 99 | 1006.0 |
| 20260505113421 | 61 | 184 | 0.0 | 0.0 | 0.00 | 0.00 | 0.00 | 99 | 1005.2 |
| 20260505112921 | 60 | 231 | 0.0 | 0.0 | 0.00 | 0.00 | 0.00 | 99 | 1006.0 |
| 20260505112420 | 59 | 220 | 0.0 | 0.0 | 0.00 | 0.00 | 0.00 | 99 | 1005.2 |
| 20260505111920 | 57 | 317 | 0.0 | 0.0 | 0.00 | 0.00 | 0.00 | 99 | 1005.2 |
| 20260505111420 | 56 | 222 | 0.0 | 0.0 | 0.00 | 0.00 | 0.00 | 99 | 1005.2 |
| 20260505110920 | 55 | 219 | 0.0 | 0.0 | 0.00 | 0.00 | 0.00 | 99 | 1006.0 |
| 20260505110420 | 54 | 222 | 0.0 | 0.0 | 0.00 | 0.00 | 0.00 | 99 | 1006.0 |
| 20260505101920 | 50 | 192 | 0.0 | 0.0 | 0.00 | 0.00 | 0.00 | 99 | 1005.2 |
| 20260505101420 | 50 | 172 | 0.0 | 0.0 | 0.00 | 0.00 | 0.00 | 99 | 1005.2 |
| 20260505100920 | 50 | 115 | 0.0 | 0.0 | 0.00 | 0.00 | 0.00 | 99 | 1005.1 |
| 20260505100420 | 51 | 144 | 0.0 | 0.0 | 0.00 | 0.00 | 0.00 | 99 | 1005.1 |
| 20260505095920 | 51 | 231 | 0.0 | 0.0 | 0.00 | 0.00 | 0.00 | 99 | 1005.0 |
| 20260505095420 | 52 | 202 | 0.0 | 0.0 | 0.00 | 0.00 | 0.00 | 99 | 1005.0 |
| 20260505094920 | 52 | 72 | 0.0 | 0.0 | 0.00 | 0.00 | 0.00 | 99 | 1005.2 |
| 20260505094420 | 52 | 227 | 0.0 | 0.0 | 0.00 | 0.00 | 0.00 | 99 | 1005.0 |
| 20260505093920 | 52 | 147 | 0.0 | 0.0 | 0.00 | 0.00 | 0.00 | 99 | 1005.0 |
| 20260505093420 | 52 | 167 | 0.0 | 0.0 | 0.00 | 0.00 | 0.00 | 99 | 1005.2 |
| 20260505092920 | 52 | 151 | 0.0 | 0.0 | 0.00 | 0.00 | 0.00 | 99 | 1006.0 |
| 20260505092420 | 53 | 106 | 0.0 | 0.0 | 0.00 | 0.00 | 0.00 | 99 | 1005.1 |
| 20260505091920 | 53 | 331 | 0.0 | 0.0 | 0.00 | 0.00 | 0.00 | 99 | 1005.0 |
| 20260505091420 | 53 | 201 | 0.0 | 0.0 | 0.00 | 0.00 | 0.00 | 99 | 1005.0 |
| 20260505090920 | 53 | 258 | 0.0 | 0.0 | 0.00 | 0.00 | 0.00 | 99 | 1005.0 |
| 20260505090420 | 52 | 238 | 0.0 | 0.0 | 0.00 | 0.00 | 0.00 | 99 | 1005.0 |
| 20260505085920 | 52 | 213 | 0.0 | 0.0 | 0.00 | 0.00 | 0.00 | 99 | 1005.0 |
| 20260505085420 | 53 | 223 | 0.0 | 0.0 | 0.00 | 0.00 | 0.00 | 99 | 1005.0 |
| 20260505084920 | 53 | 193 | 0.0 | 0.0 | 0.00 | 0.00 | 0.00 | 99 | 1005.0 |
| 20260505084420 | 53 | 228 | 0.0 | 0.0 | 0.00 | 0.00 | 0.00 | 99 | 1005.0 |
| 20260505083920 | 53 | 225 | 0.0 | 0.0 | 0.00 | 0.00 | 0.00 | 99 | 1005.0 |
| 20260505083420 | 53 | 186 | 0.0 | 0.0 | 0.00 | 0.00 | 0.00 | 99 | 1005.0 |
| 20260505082920 | 54 | 186 | 0.0 | 0.0 | 0.00 | 0.00 | 0.00 | 99 | 1005.0 |
| 20260505082420 | 54 | 209 | 0.0 | 0.0 | 0.00 | 0.00 | 0.00 | 99 | 1005.0 |
| 20260505081920 | 54 | 224 | 0.0 | 0.0 | 0.00 | 0.00 | 0.00 | 99 | 1005.0 |
| 20260505081420 | 55 | 149 | 0.0 | 0.0 | 0.00 | 0.00 | 0.00 | 99 | 1005.0 |
| 20260505080920 | 55 | 175 | 0.0 | 0.0 | 0.00 | 0.00 | 0.00 | 99 | 1005.0 |
| 20260505080420 | 55 | 212 | 0.0 | 0.0 | 0.00 | 0.00 | 0.00 | 99 | 1005.0 |
| 20260505075920 | 55 | 222 | 0.0 | 0.0 | 0.00 | 0.00 | 0.00 | 99 | 1005.0 |
| 20260505075420 | 55 | 98 | 0.0 | 0.0 | 0.00 | 0.00 | 0.00 | 99 | 1005.0 |
| 20260505074920 | 55 | 221 | 0.0 | 0.0 | 0.00 | 0.00 | 0.00 | 99 | 1005.0 |
| 20260505074420 | 55 | 218 | 0.0 | 0.0 | 0.00 | 0.00 | 0.00 | 99 | 1005.0 |
| 20260505073920 | 55 | 176 | 0.0 | 0.0 | 0.00 | 0.00 | 0.00 | 99 | 1005.0 |
| 20260505073420 | 55 | 214 | 0.0 | 0.0 | 0.00 | 0.00 | 0.00 | 99 | 1005.0 |
| 20260505072920 | 55 | 226 | 0.0 | 0.0 | 0.00 | 0.00 | 0.00 | 99 | 1005.0 |
| 20260505072420 | 55 | 219 | 0.0 | 0.0 | 0.00 | 0.00 | 0.00 | 99 | 1005.0 |
| 20260505071920 | 55 | 216 | 0.0 | 0.0 | 0.00 | 0.00 | 0.00 | 99 | 1005.0 |
| 20260505071420 | 55 | 209 | 0.0 | 0.0 | 0.00 | 0.00 | 0.00 | 99 | 1005.0 |
| 20260505070921 | 55 | 234 | 0.0 | 0.0 | 0.00 | 0.00 | 0.00 | 99 | 1005.0 |
| 20260505070420 | 55 | 223 | 0.0 | 0.0 | 0.00 | 0.00 | 0.00 | 99 | 1005.0 |
| 20260505065920 | 55 | 186 | 0.0 | 0.0 | 0.00 | 0.00 | 0.00 | 99 | 1005.0 |